Monroe, MI

10:16 AM EDT on April 23, 2017 (GMT -0400)
Custer

Weather History for KTTF - May, 2013

Change the Weather History Date:

Saturday, May 4, 2013

  Actual Average Record
Temperature  
Mean Temperature 63 °F -  
Max Temperature 69 °F 62 °F 87 °F (1955)
Min Temperature 57 °F 43 °F 30 °F (1954)
Degree Days  
Heating Degree Days 2    
Growing Degree Days 13 (Base 50)    
Moisture  
Dew Point 43 °F    
Average Humidity 51    
Maximum Humidity 77    
Minimum Humidity 30    
Precipitation  
Precipitation 0.00 in - - ()
Sea Level Pressure  
Sea Level Pressure 30.08 in    
Wind  
Wind Speed 11 mph (ESE)    
Max Wind Speed 18 mph    
Max Gust Speed 25 mph    
Visibility 10 miles    
Events      
Averages and records for this station are not official NWS values.
T = Trace of Precipitation, MM = Missing Value Source: NWS Daily Summary

Daily Weather History Graph

Daily Weather History Graph

Search for Another Location

Airport or City:

Trip Planner

Search our weather history database for the weather conditions in past years. The results will help you decide how hot, cold, wet, or windy it might be!

Date:

Astronomy

May. 04, 2013 Rise Set
Actual Time 6:25 AM EDT 8:36 PM EDT
Civil Twilight 5:54 AM EDT 9:06 PM EDT
Nautical Twilight 5:17 AM EDT 9:44 PM EDT
Astronomical Twilight 4:35 AM EDT 10:26 PM EDT
Moon 3:28 AM EDT (5/4) 3:28 PM EDT (5/4)
Length of Visible Light 15h 11m
Length of Day
14h 10m
Waning Crescent, 27% of the Moon is Illuminated
May 4
Waning Crescent
May 9
New
May 18
First Quarter
May 25
Full
May 31
Last Quarter

Hourly Weather History & Observations

Time (EDT) Temp. Dew Point Humidity Pressure Visibility Wind Dir Wind Speed Gust Speed Precip Events Conditions
12:11 AM 62.6 °F 46.4 °F 55% 30.06 in 10.0 mi ESE 10.4 mph 18.4 mph N/A   Clear
12:31 AM 64.4 °F 46.4 °F 52% 30.06 in 10.0 mi ESE 13.8 mph 18.4 mph N/A   Clear
12:52 AM 64.4 °F 48.2 °F 56% 30.06 in 10.0 mi ESE 11.5 mph 17.3 mph N/A   Clear
1:12 AM 62.6 °F 48.2 °F 59% 30.06 in 10.0 mi ESE 10.4 mph - N/A   Clear
1:32 AM 62.6 °F 48.2 °F 59% 30.07 in 10.0 mi ESE 9.2 mph - N/A   Clear
1:52 AM 62.6 °F 48.2 °F 59% 30.07 in 10.0 mi SE 6.9 mph - N/A   Clear
2:12 AM 62.6 °F 50.0 °F 63% 30.07 in 10.0 mi SE 8.1 mph - N/A   Clear
2:32 AM 64.4 °F 48.2 °F 56% 30.07 in 10.0 mi SE 9.2 mph - N/A   Clear
2:52 AM 64.4 °F 48.2 °F 56% 30.07 in 10.0 mi SE 9.2 mph - N/A   Clear
3:12 AM 64.4 °F 48.2 °F 56% 30.07 in 10.0 mi SE 9.2 mph - N/A   Clear
3:32 AM 62.6 °F 48.2 °F 59% 30.07 in 10.0 mi SE 8.1 mph - N/A   Clear
3:53 AM 62.6 °F 48.2 °F 59% 30.07 in 10.0 mi SE 8.1 mph - N/A   Clear
4:13 AM 60.8 °F 50.0 °F 68% 30.08 in 10.0 mi ESE 5.8 mph - N/A   Clear
4:33 AM 59.0 °F 51.8 °F 77% 30.08 in 10.0 mi ESE 6.9 mph - N/A   Clear
4:53 AM 59.0 °F 50.0 °F 72% 30.08 in 10.0 mi ESE 6.9 mph - N/A   Clear
5:13 AM 59.0 °F 50.0 °F 72% 30.08 in 10.0 mi ESE 8.1 mph - N/A   Clear
5:33 AM 59.0 °F 50.0 °F 72% 30.09 in 10.0 mi ESE 8.1 mph - N/A   Clear
5:53 AM 57.2 °F 50.0 °F 77% 30.09 in 10.0 mi ESE 6.9 mph - N/A   Clear
6:13 AM 57.2 °F 50.0 °F 77% 30.09 in 10.0 mi ESE 6.9 mph - N/A   Clear
6:34 AM 57.2 °F 50.0 °F 77% 30.09 in 10.0 mi ESE 9.2 mph - N/A   Clear
6:54 AM 57.2 °F 48.2 °F 72% 30.10 in 10.0 mi ESE 8.1 mph - N/A   Clear
7:14 AM 59.0 °F 48.2 °F 67% 30.10 in 10.0 mi ESE 8.1 mph - N/A   Clear
7:36 AM 59.0 °F 48.2 °F 67% 30.10 in 10.0 mi ESE 9.2 mph - N/A   Clear
7:56 AM 60.8 °F 48.2 °F 63% 30.10 in 10.0 mi ESE 9.2 mph - N/A   Clear
8:16 AM 60.8 °F 48.2 °F 63% 30.11 in 10.0 mi ESE 10.4 mph - N/A   Clear
8:31 AM 60.8 °F 48.2 °F 63% 30.11 in 10.0 mi ESE 9.2 mph - N/A   Clear
8:51 AM 60.8 °F 48.2 °F 63% 30.12 in 10.0 mi ESE 11.5 mph 16.1 mph N/A   Clear
9:12 AM 60.8 °F 46.4 °F 59% 30.12 in 10.0 mi ESE 11.5 mph 18.4 mph N/A   Clear
9:32 AM 60.8 °F 44.6 °F 55% 30.12 in 10.0 mi ESE 12.7 mph 20.7 mph N/A   Clear
9:52 AM 60.8 °F 44.6 °F 55% 30.12 in 10.0 mi ESE 12.7 mph 16.1 mph N/A   Clear
10:12 AM 60.8 °F 44.6 °F 55% 30.12 in 10.0 mi ESE 12.7 mph 19.6 mph N/A   Clear
10:32 AM 60.8 °F 42.8 °F 52% 30.12 in 10.0 mi ESE 13.8 mph 18.4 mph N/A   Clear
10:52 AM 60.8 °F 41.0 °F 48% 30.12 in 10.0 mi ESE 12.7 mph 18.4 mph N/A   Clear
11:12 AM 60.8 °F 41.0 °F 48% 30.11 in 10.0 mi ESE 10.4 mph - N/A   Clear
11:32 AM 62.6 °F 39.2 °F 42% 30.12 in 10.0 mi ESE 12.7 mph 17.3 mph N/A   Clear
11:52 AM 62.6 °F 42.8 °F 48% 30.11 in 10.0 mi East 15.0 mph - N/A   Clear
12:12 PM 62.6 °F 41.0 °F 45% 30.11 in 10.0 mi ESE 11.5 mph 18.4 mph N/A   Clear
12:33 PM 62.6 °F 39.2 °F 42% 30.11 in 10.0 mi ESE 11.5 mph 18.4 mph N/A   Clear
12:53 PM 62.6 °F 39.2 °F 42% 30.11 in 10.0 mi East 11.5 mph 18.4 mph N/A   Clear
1:13 PM 64.4 °F 37.4 °F 37% 30.10 in 10.0 mi East 15.0 mph - N/A   Clear
1:38 PM 64.4 °F 37.4 °F 37% 30.10 in 10.0 mi East 16.1 mph 21.9 mph N/A   Clear
1:53 PM 64.4 °F 35.6 °F 34% 30.09 in 10.0 mi East 17.3 mph 23.0 mph N/A   Clear
2:13 PM 64.4 °F 35.6 °F 34% 30.09 in 10.0 mi ESE 15.0 mph - N/A   Clear
2:33 PM 64.4 °F 35.6 °F 34% 30.09 in 10.0 mi East 15.0 mph 21.9 mph N/A   Clear
2:53 PM 64.4 °F 37.4 °F 37% 30.08 in 10.0 mi East 16.1 mph 25.3 mph N/A   Clear
3:13 PM 66.2 °F 35.6 °F 32% 30.08 in 10.0 mi East 17.3 mph 21.9 mph N/A   Clear
3:34 PM 68.0 °F 35.6 °F 30% 30.07 in 10.0 mi East 17.3 mph 24.2 mph N/A   Clear
3:54 PM 68.0 °F 35.6 °F 30% 30.07 in 10.0 mi East 17.3 mph 24.2 mph N/A   Scattered Clouds
4:14 PM 69.8 °F 37.4 °F 31% 30.06 in 10.0 mi ESE 17.3 mph 21.9 mph N/A   Clear
4:34 PM 68.0 °F 37.4 °F 33% 30.05 in 10.0 mi East 18.4 mph 23.0 mph N/A   Clear
4:54 PM 68.0 °F 37.4 °F 33% 30.05 in 10.0 mi East 13.8 mph 23.0 mph N/A   Clear
5:14 PM 69.8 °F 37.4 °F 31% 30.05 in 10.0 mi East 15.0 mph 19.6 mph N/A   Clear
5:34 PM 69.8 °F 37.4 °F 31% 30.05 in 10.0 mi East 18.4 mph 24.2 mph N/A   Clear
5:54 PM 69.8 °F 37.4 °F 31% 30.05 in 10.0 mi East 15.0 mph 21.9 mph N/A   Clear
6:14 PM 68.0 °F 42.8 °F 40% 30.05 in 10.0 mi ESE 11.5 mph 18.4 mph N/A   Clear
6:35 PM 68.0 °F 39.2 °F 35% 30.05 in 10.0 mi East 10.4 mph 18.4 mph N/A   Clear
6:55 PM 66.2 °F 39.2 °F 37% 30.05 in 10.0 mi East 13.8 mph 21.9 mph N/A   Clear
7:15 PM 66.2 °F 41.0 °F 40% 30.05 in 10.0 mi East 9.2 mph - N/A   Clear
7:35 PM 64.4 °F 42.8 °F 45% 30.05 in 10.0 mi East 8.1 mph - N/A   Clear
7:55 PM 64.4 °F 42.8 °F 45% 30.05 in 10.0 mi East 9.2 mph - N/A   Clear
8:15 PM 62.6 °F 42.8 °F 48% 30.06 in 10.0 mi East 8.1 mph - N/A   Clear
8:35 PM 62.6 °F 37.4 °F 39% 30.06 in 10.0 mi East 13.8 mph 19.6 mph N/A   Clear
8:55 PM 60.8 °F 37.4 °F 42% 30.07 in 10.0 mi East 11.5 mph 19.6 mph N/A   Clear
9:15 PM 60.8 °F 39.2 °F 45% 30.07 in 10.0 mi East 10.4 mph - N/A   Clear
9:36 PM 59.0 °F 39.2 °F 48% 30.08 in 10.0 mi East 9.2 mph 18.4 mph N/A   Clear
9:56 PM 59.0 °F 41.0 °F 51% 30.08 in 10.0 mi East 8.1 mph 16.1 mph N/A   Clear
10:16 PM 57.2 °F 42.8 °F 59% 30.09 in 10.0 mi East 10.4 mph - N/A   Clear
10:36 PM 59.0 °F 41.0 °F 51% 30.09 in 10.0 mi East 10.4 mph 17.3 mph N/A   Clear
10:56 PM 59.0 °F 41.0 °F 51% 30.08 in 10.0 mi East 8.1 mph 16.1 mph N/A   Clear
11:16 PM 59.0 °F 42.8 °F 55% 30.08 in 10.0 mi East 9.2 mph 16.1 mph N/A   Clear
11:36 PM 59.0 °F 42.8 °F 55% 30.08 in 10.0 mi East 10.4 mph 16.1 mph N/A   Clear
11:56 PM 59.0 °F 44.6 °F 59% 30.07 in 10.0 mi East 9.2 mph - N/A   Clear